TimeMST,TemperatureF,Dew PointF,Humidity,Sea Level PressureIn,VisibilityMPH,Wind Direction,Wind SpeedMPH,Gust SpeedMPH,PrecipitationIn,Events,Conditions,WindDirDegrees,DateUTC
12:53 AM,24.1,21.0,88,30.12,10.0,North,4.6,-,N/A,,Clear,350,2013-01-25 07:53:00
1:53 AM,24.1,21.9,91,30.14,10.0,South,3.5,-,N/A,,Clear,190,2013-01-25 08:53:00
2:53 AM,23.0,21.0,92,30.15,10.0,NE,3.5,-,N/A,,Clear,50,2013-01-25 09:53:00
3:53 AM,23.0,19.0,85,30.14,10.0,SSE,3.5,-,N/A,,Clear,150,2013-01-25 10:53:00
4:53 AM,21.9,19.0,89,30.14,10.0,East,3.5,-,N/A,,Clear,100,2013-01-25 11:53:00
5:53 AM,19.9,17.1,89,30.14,10.0,ENE,8.1,-,N/A,,Clear,70,2013-01-25 12:53:00
6:53 AM,19.0,16.0,88,30.16,10.0,Calm,Calm,-,N/A,,Clear,0,2013-01-25 13:53:00
7:53 AM,28.0,23.0,81,30.15,10.0,West,8.1,-,N/A,,Clear,280,2013-01-25 14:53:00
8:53 AM,39.9,28.0,63,30.14,10.0,SSW,12.7,18.4,N/A,,Clear,210,2013-01-25 15:53:00
9:53 AM,50.0,28.9,44,30.12,10.0,West,15.0,24.2,N/A,,Clear,280,2013-01-25 16:53:00
10:53 AM,54.0,28.0,37,30.10,10.0,West,10.4,-,N/A,,Clear,260,2013-01-25 17:53:00
11:53 AM,55.0,27.0,34,30.07,10.0,WNW,8.1,18.4,N/A,,Clear,300,2013-01-25 18:53:00
12:53 PM,57.0,26.1,30,30.06,10.0,NW,6.9,-,N/A,,Clear,310,2013-01-25 19:53:00
1:53 PM,57.9,25.0,28,30.04,10.0,Variable,5.8,-,N/A,,Clear,0,2013-01-25 20:53:00
2:53 PM,57.0,25.0,29,30.04,10.0,North,4.6,-,N/A,,Clear,350,2013-01-25 21:53:00
3:53 PM,55.0,24.1,30,30.05,10.0,WNW,9.2,-,N/A,,Clear,290,2013-01-25 22:53:00
4:53 PM,51.1,25.0,36,30.07,10.0,Calm,Calm,-,N/A,,Clear,0,2013-01-25 23:53:00
5:53 PM,46.9,25.0,42,30.10,10.0,West,6.9,-,N/A,,Clear,280,2013-01-26 00:53:00
6:53 PM,45.0,25.0,46,30.11,10.0,WNW,8.1,-,N/A,,Clear,290,2013-01-26 01:53:00
7:53 PM,37.9,24.1,57,30.10,10.0,West,5.8,-,N/A,,Clear,260,2013-01-26 02:53:00
8:53 PM,36.0,24.1,62,30.08,10.0,Variable,3.5,-,N/A,,Clear,0,2013-01-26 03:53:00
9:53 PM,39.9,26.1,58,30.02,10.0,WSW,4.6,-,N/A,,Clear,240,2013-01-26 04:53:00
10:53 PM,39.0,27.0,62,30.00,10.0,SW,6.9,-,N/A,,Clear,220,2013-01-26 05:53:00
11:53 PM,36.0,25.0,64,30.00,10.0,NW,6.9,-,N/A,,Clear,310,2013-01-26 06:53:00